Location: Goheenville
(40.9070°N, 79.3720°W)
Time: 19:54:17
(UTC-04:00)

Daily predictions for brighter satellites

Satellite Brightness Start Highest point End
(mag) Time Altitude Azimuth Time Altitude Azimuth Time Altitude Azimuth
Aureole 2 Rocket 3.0 19:24:48 10° SSW 19:29:10 79° ESE 19:33:28 10° NNE
ATLAS CENTAUR R/B 3.5 19:27:22 10° SSW 19:31:52 63° ESE 19:45:43 10° NE
Cosmos 2333 Rocket 3.9 19:29:54 10° SW 19:35:13 37° WNW 19:40:35 10° N
SAR-Lupe-1 4.2 19:32:39 10° SSE 19:36:07 53° ENE 19:39:36 10° N
Okean 3 Rocket 3.7 19:31:43 10° N 19:36:18 90° W 19:40:50 10° S
SJ-6B 3.0 19:33:44 10° SSE 19:37:36 54° ENE 19:41:36 10° N
Meteor 1-29 4.3 19:38:00 10° NE 19:40:37 20° E 19:43:13 10° SE
Helios 1A 3.9 19:37:18 10° SE 19:40:56 29° ENE 19:44:35 10° N
FREGAT/IRIS 3.1 19:38:08 10° SE 19:41:03 40° ENE 19:43:59 10° N
Resurs 01 Rocket 2.3 19:38:37 10° SE 19:42:40 35° ENE 19:46:43 10° N
Cosmos 1674 4.4 19:42:22 10° NE 19:44:39 15° ENE 19:46:25 12° E
NOSS 3-2 (A) 3.6 19:39:47 10° SW 19:45:50 87° WNW 19:52:29 10° NE
Cosmos 1758 3.7 19:46:13 10° SSE 19:50:03 42° E 19:53:57 10° NNE
Cosmos 1452 Rocket 3.6 19:45:39 10° NNW 19:50:51 58° ENE 19:56:01 10° SSE
Cosmos 1484 Rocket 3.9 19:48:41 10° S 19:52:23 49° W 19:56:12 10° NNW
Timation 1 Rocket 4.4 19:49:24 10° NNW 19:55:24 86° WSW 20:01:22 10° SSE
ATLAS 5 CENTAUR R/B 1.8 19:50:48 10° SSW 19:55:32 80° ESE 20:00:43 10° NE
Cosmos 2237 Rocket 4.2 19:51:02 10° WSW 19:56:01 31° WNW 20:01:00 10° N
Abrixas 3.3 19:53:18 10° SSW 19:56:02 33° SE 19:57:41 19° E
Nadezhda 4 Rocket 4.3 19:54:01 10° N 19:59:57 43° ENE 20:05:48 10° SSE
Cosmos 1346 3.9 19:58:32 10° NNE 20:01:11 28° ENE 20:02:37 19° ESE
COSMO-SKYMED 1 4.1 19:58:23 10° N 20:02:28 40° WNW 20:06:31 10° SW
Meteor 2-12 Rocket 4.5 19:58:09 10° S 20:04:08 57° E 20:10:10 10° NNE
Meteor 1-21 Rocket 4.2 20:02:09 10° N 20:07:39 59° ENE 20:13:05 10° SSE
Cosmos 468 4.5 20:02:50 10° S 20:08:00 59° ESE 20:13:08 10° NNE
GP-B 4.5 20:05:13 10° NE 20:08:19 19° E 20:08:19 19° E
ASTEX 1 3.9 20:07:14 10° NNE 20:11:44 35° E 20:16:10 10° SSE
Cosmos 1420 Rocket 4.2 20:06:49 10° N 20:11:59 50° ENE 20:16:34 13° SE
SL-16 R/B 3.4 20:11:16 10° SW 20:16:42 45° WNW 20:22:11 10° NNE
CENTAUR R/B 3.0 20:12:09 10° S 20:17:29 35° ESE 20:23:22 10° NE
Helios 1B rocket 2.3 20:13:55 10° NNE 20:18:02 77° ESE 20:22:08 10° S
Cosmos 1544 3.0 20:15:35 10° S 20:19:16 62° E 20:22:59 10° NNE
METEOR-M 4.2 20:15:13 10° SSE 20:20:34 82° WSW 20:25:58 10° NNW
Cosmos 1766 Rocket 3.9 20:17:31 10° NNW 20:21:52 68° W 20:26:09 10° S
Cosmos 1634 Rocket 4.5 20:17:44 10° SSE 20:23:18 36° E 20:28:52 10° NNE
NOSS 3-2 (C) 4.0 20:18:53 10° SW 20:24:55 61° NW 20:31:31 10° NNE
CZ-2D R/B 3.7 20:24:44 31° ESE 20:25:59 41° ENE 20:29:41 10° N
Spot 2 Rocket 3.6 20:22:34 10° S 20:27:37 77° WSW 20:32:40 10° NNW
OAO 3 Rocket 3.9 20:23:34 10° WSW 20:28:01 40° S 20:30:04 26° SE
Cosmos 1048 Rocket 4.0 20:25:37 10° S 20:30:51 63° ESE 20:36:02 10° NNE
Cosmos 1269 Rocket 3.9 20:26:07 10° S 20:31:22 74° ESE 20:36:39 10° NNE
FENGYUN 3A 3.6 20:28:56 10° SSE 20:34:15 68° ENE 20:39:37 10° N
Cosmos-2242 3.4 20:30:19 10° SSW 20:34:38 66° W 20:39:01 10° N
Cosmos 2034 Rocket 4.4 20:31:04 10° SSW 20:37:17 68° W 20:43:37 10° N
Envisat 4.4 20:39:20 21° NE 20:39:20 21° NE 20:42:33 10° NNE
H-2A R/B 2.7 20:39:08 44° SE 20:40:06 61° ENE 20:43:57 10° N
Gbstr 26 Del rocket 3.5 20:37:36 10° SSW 20:41:53 47° SE 20:42:57 41° E
Cosmos 1805 4.5 20:38:12 10° SSW 20:41:57 43° W 20:45:44 10° N
Cosmos 1953 3.6 20:39:32 10° SSW 20:43:19 41° WNW 20:47:07 10° N
Cosmos 2151 3.8 20:39:40 10° N 20:42:41 32° NE 20:42:41 32° NE
Cosmos 1174 4.3 20:39:54 10° S 20:44:14 45° SE 20:44:14 45° SE
ISS -3.1 20:41:22 10° SW 20:44:06 56° SSW 20:44:06 56° SSW
ALOS 2.2 20:42:16 15° SSE 20:46:11 89° WSW 20:50:53 10° NNW
BREEZE-M DEB (TANK) 3.8 20:36:55 10° W 20:50:01 59° N 20:52:03 34° ENE
Cosmos 1842 Rocket 3.5 20:50:02 10° S 20:54:21 85° W 20:58:44 10° N
Cosmos 1500 Rocket 3.5 20:50:35 10° N 20:55:02 86° W 20:57:02 33° S
Cosmos 158 Rocket 3.7 20:51:11 10° S 20:55:59 62° ESE 21:00:49 10° NNE
USA 215 3.4 20:50:27 10° NE 20:56:59 76° NW 21:03:29 10° WSW
Cosmos 1943 Rocket 3.2 20:53:32 10° N 20:58:07 29° NE 20:58:07 29° NE
Cosmos 2369 Rocket 2.2 20:52:51 10° NNW 20:58:30 64° ENE 20:59:45 50° ESE
Cosmos 1943 3.0 20:53:18 10° SSW 20:58:53 68° ESE 21:04:28 10° NNE
GPS 2-04 Rocket1 4.1 20:56:17 10° SW 20:58:12 24° SSW 20:58:12 24° SSW
Cosmos 1470 3.2 21:01:33 10° SSW 21:05:23 60° W 21:09:15 10° N
Cosmos 2263 4.3 20:59:55 10° NNW 21:05:35 53° ENE 21:05:59 52° ENE
Cosmos 1733 3.5 21:08:47 67° WNW 21:08:47 67° WNW 21:12:31 10° N
Cosmos 1627 Rocket 4.4 21:03:17 10° N 21:09:29 69° E 21:11:13 48° SE
SL-8 R/B 3.8 21:06:56 10° WSW 21:11:43 72° NNW 21:12:17 63° NNE
SeaSat 1 3.3 21:08:12 10° NNE 21:15:13 35° S 21:18:04 10° SSW
ERS-1 Rocket 3.5 21:15:22 43° NNE 21:15:22 43° NNE 21:19:10 10° N
Resurs 01 Rocket 4.1 21:15:51 10° SW 21:19:13 21° W 21:22:36 10° NW
Cosmos 1674 4.2 21:16:52 10° NNW 21:20:27 35° W 21:21:24 30° SW
Cosmos 1110 Rocket 4.2 21:17:44 10° NNW 21:22:20 59° NNE 21:22:20 59° NNE
Meteor 1-16 Rocket 4.2 21:36:59 67° NNW 21:36:59 67° NNW 21:41:44 10° N
Meteor 1-11 4.3 21:34:25 10° NNW 21:40:07 79° WNW 21:40:07 79° WNW
ATLAS 5 CENTAUR R/B 4.4 21:37:27 10° W 21:40:56 19° NW 21:44:38 10° N
Cosmos 839 Rocket 4.2 21:35:55 10° NW 21:43:25 72° WSW 21:44:15 64° SSW
GP-B 4.5 21:41:42 10° NNW 21:45:48 37° W 21:45:48 37° W
Cosmos 2279 Rocket 4.0 21:46:27 73° N 21:46:27 73° N 21:52:03 10° N
Cosmos 1655 Rocket 4.2 21:49:35 10° NNW 21:55:44 65° W 21:55:58 64° WSW
CENTAUR R/B 3.5 22:02:02 10° WSW 22:07:55 45° NW 22:14:32 10° NNE
Cosmos 2369 Rocket 4.5 22:38:18 10° WNW 22:41:35 17° W 22:41:35 17° W
Cosmos 1943 Rocket 4.1 22:37:01 10° NW 22:39:39 26° NW 22:39:39 26° NW
